This is the latest recevied weather packets stored in our database for station/object HS3UAA-1. If no packets are shown the sender has not sent any weather packets the latest 10 day(s).
| Time | Temp. | Humidity | Pressure | Rain* | Wind** | Luminosity | Snow |
|---|---|---|---|---|---|---|---|
| 1788211956 | 32.22° C | 52% | 996 hPa | - | - | 0 W/m² | - |
| 1788211634 | 32.22° C | 52% | 996 hPa | - | - | 0 W/m² | - |
| 1788211312 | 32.22° C | 52% | 996 hPa | - | - | 0 W/m² | - |
| 1788210990 | 32.22° C | 52% | 996 hPa | - | - | 0 W/m² | - |
| 1788210668 | 32.22° C | 53% | 996 hPa | - | - | 0 W/m² | - |
| 1788210346 | 32.78° C | 51% | 996 hPa | - | - | 0 W/m² | - |
| 1788210024 | 32.22° C | 53% | 996 hPa | - | - | 0 W/m² | - |
| 1788209701 | 32.22° C | 52% | 996 hPa | - | - | 0 W/m² | - |
| 1788209379 | 32.22° C | 52% | 996 hPa | - | - | 0 W/m² | - |
| 1788209058 | 32.22° C | 53% | 996 hPa | - | - | 0 W/m² | - |
| 1788208735 | 32.22° C | 53% | 996 hPa | - | - | 0 W/m² | - |
| 1788208413 | 32.22° C | 53% | 996 hPa | - | - | 0 W/m² | - |
| 1788208091 | 32.22° C | 52% | 996 hPa | - | - | 0 W/m² | - |
| 1788207769 | 32.22° C | 52% | 996 hPa | - | - | 0 W/m² | - |
| 1788207447 | 31.67° C | 53% | 996 hPa | - | - | 0 W/m² | - |
| 1788207125 | 33.33° C | 50% | 996 hPa | - | - | 0 W/m² | - |
| 1788206803 | 32.22° C | 52% | 996 hPa | - | - | 0 W/m² | - |
| 1788206481 | 32.22° C | 51% | 996 hPa | - | - | 0 W/m² | - |
| 1788206159 | 32.22° C | 52% | 996 hPa | - | - | 0 W/m² | - |
| 1788205569 | 33.33° C | 49% | 996 hPa | - | - | 0 W/m² | - |
| 1788205247 | 32.22° C | 52% | 996 hPa | - | - | 0 W/m² | - |
| 1788204925 | 32.22° C | 52% | 996 hPa | - | - | 0 W/m² | - |
| 1788204603 | 32.22° C | 52% | 996 hPa | - | - | 0 W/m² | - |
| 1788204281 | 33.33° C | 50% | 996 hPa | - | - | 0 W/m² | - |
| 1788203973 | 32.22° C | 52% | 996 hPa | - | - | 0 W/m² | - |
* Rain since midnight (hover to see other rain measurements)
** Current wind speed in m/s (hover to see current wind gust speed)